GEFSNE_prec_meanprecacc_282.txt.gz
Total_Precipitation_Accumulation
1.96 2.11 2.03 1.96 1.95 1.98 2.04 2.14 2.19 2.06 1.76 1.29 1.13 1.10 1.12 1.20 1.53 1.41 1.29 1.29 1.16 1.10 1.02 0.99 1.00 1.05 1.22 1.43 1.68 1.89 2.02 2.13 2.18 2.31 2.47 2.42 2.48 2.53
1.78 1.90 2.02 2.01 2.01 1.99 2.05 2.08 2.06 2.05 1.91 1.49 1.22 1.09 1.16 1.09 1.30 1.08 1.19 1.39 1.17 1.01 0.95 0.92 0.91 0.93 0.96 1.06 1.11 1.17 1.23 1.28 1.42 1.72 1.92 1.89 1.87 1.97
1.56 1.60 1.76 1.87 1.99 2.00 2.00 2.00 2.03 2.00 1.87 1.62 1.28 1.13 1.26 1.27 1.29 1.11 1.08 1.13 1.06 1.02 0.95 0.87 0.84 0.88 0.85 0.85 0.85 0.84 0.88 0.89 0.97 1.17 1.37 1.49 1.46 1.44
1.42 1.50 1.53 1.53 1.65 1.77 1.88 1.85 1.91 1.94 1.92 1.81 1.52 1.29 1.30 1.39 1.55 1.49 1.35 1.24 1.21 1.30 1.23 1.06 0.94 0.93 0.92 0.86 0.80 0.75 0.71 0.74 0.76 0.84 1.00 1.25 1.38 1.38
1.20 1.28 1.30 1.38 1.52 1.52 1.58 1.66 1.72 1.77 1.89 1.85 1.77 1.64 1.48 1.41 1.50 1.47 1.49 1.61 1.54 1.51 1.54 1.36 1.17 1.06 1.02 0.98 0.92 0.82 0.73 0.72 0.76 0.81 0.84 0.97 1.17 1.30
1.06 1.14 1.19 1.24 1.34 1.39 1.39 1.52 1.65 1.73 1.77 1.75 1.70 1.63 1.58 1.54 1.54 1.53 1.58 1.70 1.77 1.64 1.58 1.48 1.42 1.32 1.19 1.11 1.02 0.95 0.86 0.79 0.80 0.88 0.90 0.93 1.06 1.16
0.99 1.02 1.05 1.04 1.07 1.12 1.11 1.30 1.45 1.63 1.70 1.74 1.65 1.53 1.48 1.50 1.49 1.51 1.59 1.77 1.80 1.81 1.76 1.63 1.50 1.33 1.25 1.19 1.10 1.05 1.01 0.91 0.86 0.90 0.97 0.98 1.03 1.15
0.89 0.93 1.02 1.04 0.99 0.93 0.91 0.97 1.09 1.21 1.41 1.55 1.59 1.52 1.44 1.42 1.53 1.65 1.64 1.75 1.86 1.75 1.62 1.70 1.62 1.53 1.37 1.22 1.23 1.21 1.13 1.03 0.95 0.93 0.97 1.00 0.99 1.07
0.72 0.86 0.98 1.02 1.05 1.05 0.95 0.93 0.91 0.93 1.03 1.21 1.36 1.38 1.37 1.40 1.51 1.62 1.69 1.74 1.62 1.63 1.56 1.67 1.65 1.53 1.36 1.34 1.40 1.26 1.20 1.15 1.12 1.09 1.08 1.06 1.03 1.06
0.63 0.74 0.90 1.02 1.06 1.09 1.04 1.09 1.03 0.91 0.88 0.93 1.12 1.22 1.25 1.42 1.61 1.78 1.89 1.87 1.74 1.65 1.55 1.60 1.53 1.40 1.30 1.28 1.40 1.27 1.17 1.12 1.10 1.13 1.13 1.09 1.08 1.11
0.62 0.68 0.85 0.94 1.08 1.12 1.06 1.15 1.13 0.92 0.84 0.93 0.96 1.05 1.18 1.34 1.56 1.79 1.87 1.86 1.81 1.69 1.48 1.35 1.27 1.32 1.34 1.28 1.27 1.26 1.14 1.07 1.00 0.99 0.98 0.98 0.99 1.10
0.65 0.68 0.91 0.97 1.04 1.00 0.97 1.17 1.26 1.09 0.83 0.82 0.89 1.03 1.14 1.30 1.54 1.73 1.97 1.97 1.76 1.66 1.48 1.33 1.30 1.38 1.52 1.41 1.23 1.13 1.06 1.10 1.09 1.05 1.01 1.01 1.09 1.06
0.54 0.59 0.61 0.76 0.81 0.85 0.94 1.01 1.15 1.04 0.91 0.99 1.08 1.10 1.20 1.28 1.40 1.55 1.78 1.96 1.88 1.64 1.46 1.45 1.41 1.38 1.37 1.32 1.23 1.13 1.02 1.01 1.01 1.03 1.07 1.11 1.15 1.11
0.44 0.49 0.54 0.68 0.72 0.75 0.79 0.83 0.90 0.94 0.97 1.11 1.13 1.03 1.09 1.18 1.25 1.38 1.50 1.62 1.52 1.46 1.31 1.25 1.26 1.20 1.16 1.08 1.05 1.08 1.09 1.03 1.00 1.00 1.00 1.17 1.23 1.24
0.42 0.51 0.53 0.61 0.59 0.60 0.68 0.71 0.78 0.98 1.12 1.07 1.05 1.00 0.99 1.06 1.12 1.28 1.43 1.54 1.51 1.35 1.20 1.09 1.09 1.08 1.06 1.01 0.92 0.88 0.94 0.98 0.94 0.95 0.99 1.02 1.04 1.14
0.44 0.51 0.55 0.58 0.57 0.57 0.64 0.72 0.82 0.98 1.15 1.02 0.90 0.90 0.94 1.05 1.16 1.20 1.26 1.31 1.45 1.45 1.30 1.17 1.12 1.12 1.09 0.98 0.94 0.88 0.80 0.82 0.86 0.93 0.98 0.99 0.99 1.00
0.47 0.55 0.66 0.74 0.72 0.73 0.80 0.82 0.85 0.87 0.94 0.88 0.89 0.96 1.03 1.05 1.12 1.19 1.20 1.17 1.17 1.20 1.23 1.19 1.15 1.17 1.18 1.11 1.03 0.92 0.86 0.80 0.82 0.94 1.06 1.09 1.03 1.02
0.60 0.61 0.72 0.87 0.92 0.93 0.95 0.96 0.98 0.93 0.94 0.91 0.95 1.00 1.02 1.01 1.02 1.12 1.22 1.24 1.15 1.04 0.99 0.98 1.04 1.15 1.21 1.19 1.06 0.95 0.92 0.91 0.91 0.93 0.96 1.00 0.97 0.95
0.61 0.65 0.84 0.90 0.90 0.92 0.97 1.01 0.94 0.84 0.85 0.88 0.85 0.87 0.89 0.89 0.91 0.95 1.04 1.10 1.11 1.04 0.97 0.94 0.99 1.08 1.13 1.03 0.91 0.83 0.87 0.93 1.01 0.99 0.93 0.88 0.84 0.82
0.67 0.85 1.03 1.07 1.01 0.95 0.92 0.89 0.81 0.75 0.73 0.74 0.78 0.80 0.85 0.88 0.88 0.87 0.89 0.91 0.95 0.97 1.01 1.01 1.03 1.07 1.13 1.07 0.94 0.81 0.79 0.87 0.94 1.00 0.97 0.96 0.96 1.00
0.72 0.85 0.98 1.08 1.03 0.90 0.82 0.79 0.75 0.73 0.71 0.72 0.76 0.81 0.83 0.86 0.85 0.84 0.83 0.89 0.91 0.91 0.92 0.90 0.93 1.13 1.19 1.24 1.17 0.93 0.84 0.93 1.02 1.03 1.02 1.06 1.06 1.00
0.70 0.73 0.76 0.77 0.73 0.71 0.75 0.74 0.73 0.75 0.75 0.74 0.77 0.80 0.85 0.91 0.91 0.86 0.85 0.85 0.86 0.85 0.83 0.84 0.92 1.10 1.19 1.25 1.15 0.98 0.87 0.89 1.04 1.15 1.13 1.10 1.06 1.01
0.71 0.69 0.70 0.71 0.70 0.68 0.70 0.72 0.73 0.74 0.75 0.77 0.81 0.84 0.85 0.87 0.91 0.91 0.86 0.85 0.86 0.84 0.86 0.89 0.92 1.04 1.16 1.19 1.16 1.06 0.97 0.94 0.95 0.97 0.97 1.03 1.00 0.92

GEFSNE_prec_meanprecacc_288.txt.gz
Total_Precipitation_Accumulation
1.98 2.14 2.08 2.01 1.98 2.00 2.05 2.15 2.20 2.07 1.78 1.31 1.14 1.11 1.15 1.24 1.57 1.44 1.31 1.30 1.17 1.11 1.05 1.04 1.08 1.17 1.36 1.62 1.83 2.00 2.09 2.18 2.25 2.39 2.51 2.46 2.53 2.57
1.81 1.93 2.06 2.05 2.04 2.01 2.07 2.09 2.07 2.06 1.92 1.50 1.22 1.10 1.19 1.14 1.34 1.10 1.21 1.40 1.18 1.03 0.98 0.96 0.97 1.02 1.07 1.23 1.30 1.28 1.28 1.32 1.48 1.79 1.97 1.93 1.92 2.02
1.58 1.62 1.78 1.90 2.01 2.02 2.02 2.02 2.05 2.01 1.88 1.63 1.29 1.13 1.27 1.30 1.34 1.14 1.10 1.15 1.08 1.04 0.97 0.91 0.88 0.94 0.93 0.96 1.00 0.95 0.92 0.92 1.00 1.21 1.42 1.54 1.50 1.47
1.43 1.51 1.55 1.56 1.67 1.79 1.91 1.88 1.92 1.96 1.93 1.82 1.53 1.30 1.30 1.40 1.57 1.52 1.38 1.26 1.24 1.32 1.25 1.09 0.99 0.98 0.99 0.95 0.91 0.84 0.76 0.77 0.79 0.87 1.02 1.27 1.41 1.42
1.21 1.28 1.31 1.39 1.53 1.54 1.61 1.68 1.74 1.79 1.91 1.86 1.78 1.65 1.49 1.43 1.51 1.50 1.52 1.63 1.56 1.53 1.55 1.37 1.20 1.11 1.07 1.06 1.01 0.90 0.79 0.76 0.78 0.83 0.87 1.00 1.19 1.33
1.07 1.14 1.20 1.25 1.35 1.41 1.42 1.55 1.68 1.75 1.79 1.76 1.71 1.64 1.58 1.54 1.55 1.54 1.61 1.73 1.79 1.65 1.59 1.50 1.44 1.35 1.23 1.17 1.09 1.02 0.94 0.84 0.85 0.92 0.93 0.96 1.08 1.18
1.00 1.02 1.06 1.04 1.09 1.15 1.15 1.33 1.48 1.65 1.72 1.75 1.65 1.54 1.49 1.51 1.50 1.52 1.60 1.80 1.83 1.83 1.78 1.64 1.52 1.35 1.28 1.23 1.16 1.12 1.07 0.97 0.91 0.94 1.00 1.00 1.05 1.16
0.91 0.94 1.02 1.05 1.01 0.96 0.93 0.99 1.11 1.23 1.43 1.56 1.60 1.53 1.45 1.43 1.54 1.66 1.65 1.77 1.88 1.78 1.65 1.72 1.64 1.55 1.39 1.24 1.27 1.27 1.19 1.08 0.99 0.96 1.01 1.03 1.01 1.10
0.74 0.88 0.99 1.02 1.07 1.06 0.96 0.94 0.92 0.94 1.04 1.23 1.37 1.38 1.38 1.41 1.51 1.63 1.71 1.76 1.64 1.67 1.60 1.69 1.67 1.55 1.38 1.35 1.42 1.30 1.25 1.19 1.15 1.12 1.11 1.09 1.06 1.09
0.65 0.77 0.92 1.04 1.08 1.10 1.06 1.10 1.05 0.92 0.88 0.94 1.12 1.22 1.25 1.42 1.61 1.79 1.90 1.89 1.77 1.69 1.59 1.62 1.55 1.42 1.31 1.29 1.41 1.30 1.21 1.17 1.14 1.17 1.17 1.12 1.12 1.16
0.66 0.72 0.88 0.96 1.11 1.15 1.08 1.17 1.15 0.94 0.85 0.93 0.97 1.06 1.19 1.34 1.56 1.79 1.87 1.88 1.85 1.74 1.52 1.37 1.28 1.33 1.35 1.29 1.28 1.27 1.17 1.10 1.04 1.02 1.02 1.01 1.05 1.18
0.71 0.73 0.95 1.01 1.09 1.05 1.00 1.20 1.29 1.12 0.85 0.84 0.91 1.05 1.15 1.31 1.55 1.73 1.98 1.98 1.79 1.70 1.52 1.35 1.31 1.39 1.53 1.41 1.23 1.14 1.08 1.12 1.12 1.08 1.05 1.06 1.14 1.13
0.57 0.62 0.64 0.80 0.86 0.90 0.96 1.04 1.18 1.08 0.93 1.02 1.11 1.13 1.22 1.30 1.42 1.56 1.80 1.97 1.90 1.67 1.49 1.47 1.42 1.39 1.38 1.33 1.24 1.13 1.03 1.03 1.05 1.07 1.11 1.16 1.21 1.18
0.46 0.51 0.56 0.70 0.75 0.80 0.83 0.86 0.94 0.98 1.01 1.15 1.17 1.07 1.12 1.20 1.28 1.41 1.53 1.65 1.55 1.48 1.33 1.27 1.27 1.21 1.16 1.09 1.06 1.09 1.09 1.04 1.01 1.03 1.04 1.22 1.28 1.29
0.44 0.53 0.56 0.64 0.61 0.63 0.71 0.75 0.81 1.01 1.15 1.11 1.09 1.03 1.02 1.08 1.14 1.30 1.44 1.56 1.52 1.36 1.22 1.11 1.10 1.09 1.07 1.01 0.93 0.89 0.95 0.99 0.95 0.96 1.00 1.04 1.08 1.18
0.47 0.54 0.58 0.62 0.60 0.60 0.67 0.75 0.84 1.01 1.19 1.06 0.94 0.94 0.97 1.07 1.18 1.21 1.27 1.32 1.46 1.47 1.31 1.19 1.14 1.15 1.10 0.99 0.95 0.89 0.81 0.83 0.88 0.94 0.99 1.00 1.01 1.03
0.51 0.58 0.69 0.77 0.75 0.75 0.81 0.84 0.87 0.89 0.97 0.93 0.93 1.00 1.07 1.09 1.15 1.21 1.23 1.20 1.19 1.22 1.24 1.21 1.17 1.20 1.20 1.12 1.04 0.92 0.87 0.81 0.83 0.95 1.07 1.10 1.05 1.04
0.63 0.65 0.77 0.92 0.96 0.96 0.98 0.99 1.00 0.96 0.97 0.95 0.99 1.04 1.06 1.05 1.06 1.16 1.26 1.28 1.18 1.06 1.01 1.01 1.07 1.17 1.23 1.20 1.07 0.96 0.93 0.92 0.93 0.94 0.98 1.01 0.99 0.97
0.64 0.68 0.88 0.95 0.94 0.95 1.00 1.03 0.96 0.85 0.87 0.91 0.88 0.90 0.92 0.93 0.94 0.99 1.07 1.14 1.14 1.07 0.99 0.97 1.02 1.12 1.16 1.05 0.92 0.83 0.88 0.94 1.02 1.01 0.94 0.89 0.85 0.85
0.69 0.87 1.05 1.09 1.03 0.97 0.95 0.91 0.83 0.76 0.75 0.76 0.80 0.83 0.88 0.91 0.90 0.90 0.92 0.95 0.99 1.00 1.04 1.04 1.06 1.11 1.16 1.09 0.95 0.82 0.80 0.88 0.96 1.01 0.98 0.96 0.97 1.01
0.74 0.87 1.00 1.10 1.05 0.93 0.85 0.81 0.77 0.75 0.73 0.73 0.78 0.84 0.86 0.89 0.87 0.87 0.86 0.92 0.95 0.95 0.95 0.93 0.95 1.16 1.22 1.27 1.18 0.94 0.84 0.94 1.04 1.04 1.03 1.06 1.06 1.00
0.72 0.75 0.78 0.79 0.75 0.74 0.79 0.77 0.76 0.79 0.78 0.77 0.80 0.83 0.88 0.95 0.94 0.89 0.88 0.88 0.89 0.88 0.86 0.86 0.95 1.13 1.22 1.28 1.17 1.00 0.88 0.90 1.05 1.16 1.14 1.11 1.07 1.02
0.74 0.72 0.72 0.73 0.73 0.71 0.74 0.76 0.77 0.78 0.80 0.81 0.85 0.88 0.90 0.92 0.96 0.95 0.90 0.90 0.90 0.89 0.90 0.92 0.95 1.08 1.19 1.21 1.18 1.07 0.98 0.94 0.96 0.98 0.98 1.04 1.01 0.94

GEFSNE_prec_meanprecacc_294.txt.gz
Total_Precipitation_Accumulation
2.00 2.16 2.09 2.02 1.99 2.00 2.06 2.16 2.21 2.08 1.80 1.32 1.16 1.13 1.16 1.25 1.59 1.47 1.34 1.32 1.18 1.12 1.06 1.05 1.11 1.23 1.40 1.65 1.86 2.03 2.12 2.20 2.28 2.44 2.56 2.51 2.57 2.60
1.81 1.93 2.06 2.05 2.04 2.02 2.07 2.10 2.08 2.07 1.93 1.51 1.24 1.11 1.19 1.14 1.35 1.13 1.24 1.43 1.20 1.04 0.98 0.96 0.99 1.08 1.18 1.35 1.39 1.35 1.33 1.37 1.54 1.84 2.02 1.97 1.95 2.06
1.59 1.63 1.79 1.90 2.02 2.02 2.02 2.02 2.06 2.03 1.89 1.64 1.30 1.14 1.28 1.30 1.35 1.16 1.12 1.17 1.10 1.06 0.98 0.92 0.90 0.96 0.98 1.10 1.22 1.12 1.02 1.00 1.07 1.28 1.51 1.59 1.54 1.52
1.45 1.52 1.56 1.57 1.67 1.79 1.91 1.88 1.94 1.98 1.95 1.83 1.54 1.31 1.31 1.40 1.58 1.54 1.39 1.27 1.25 1.34 1.27 1.10 1.01 1.01 1.03 1.06 1.16 1.11 0.92 0.88 0.86 0.94 1.15 1.38 1.49 1.48
1.23 1.30 1.32 1.40 1.54 1.55 1.62 1.70 1.76 1.81 1.93 1.88 1.79 1.66 1.50 1.43 1.52 1.51 1.54 1.65 1.57 1.54 1.56 1.38 1.22 1.13 1.10 1.12 1.15 1.14 1.00 0.91 0.88 0.90 0.96 1.10 1.27 1.39
1.08 1.15 1.21 1.26 1.36 1.42 1.43 1.57 1.69 1.77 1.80 1.78 1.72 1.64 1.59 1.55 1.55 1.55 1.63 1.76 1.83 1.68 1.60 1.50 1.45 1.36 1.25 1.19 1.15 1.14 1.10 0.98 0.96 1.00 0.99 1.01 1.14 1.25
1.01 1.04 1.07 1.06 1.10 1.16 1.16 1.35 1.50 1.67 1.74 1.76 1.66 1.55 1.50 1.51 1.51 1.53 1.61 1.83 1.87 1.88 1.81 1.65 1.52 1.35 1.29 1.25 1.19 1.17 1.15 1.05 1.00 1.02 1.06 1.05 1.08 1.19
0.92 0.96 1.04 1.07 1.02 0.97 0.95 1.01 1.14 1.26 1.45 1.58 1.61 1.53 1.46 1.44 1.55 1.67 1.67 1.79 1.92 1.83 1.70 1.74 1.65 1.55 1.39 1.25 1.29 1.30 1.22 1.12 1.04 1.02 1.06 1.08 1.05 1.13
0.75 0.89 0.99 1.03 1.08 1.07 0.97 0.96 0.94 0.97 1.07 1.25 1.38 1.39 1.39 1.42 1.53 1.65 1.72 1.77 1.68 1.72 1.66 1.76 1.69 1.56 1.39 1.36 1.44 1.32 1.27 1.22 1.18 1.16 1.15 1.13 1.09 1.12
0.66 0.78 0.93 1.05 1.10 1.12 1.07 1.12 1.06 0.93 0.91 0.97 1.14 1.24 1.27 1.44 1.63 1.80 1.92 1.91 1.79 1.73 1.66 1.72 1.61 1.44 1.32 1.30 1.43 1.32 1.23 1.19 1.17 1.20 1.21 1.15 1.15 1.19
0.67 0.73 0.90 0.97 1.13 1.16 1.09 1.17 1.16 0.95 0.87 0.95 0.99 1.08 1.22 1.38 1.59 1.82 1.89 1.89 1.86 1.75 1.56 1.44 1.35 1.36 1.37 1.30 1.29 1.29 1.20 1.13 1.06 1.05 1.05 1.05 1.08 1.21
0.72 0.74 0.96 1.02 1.11 1.06 1.02 1.21 1.30 1.12 0.86 0.85 0.93 1.07 1.18 1.34 1.59 1.76 2.00 2.00 1.81 1.72 1.54 1.39 1.36 1.43 1.57 1.44 1.25 1.16 1.10 1.15 1.15 1.12 1.09 1.10 1.18 1.17
0.58 0.63 0.65 0.81 0.88 0.92 0.98 1.05 1.19 1.09 0.95 1.03 1.13 1.15 1.24 1.32 1.44 1.59 1.83 2.01 1.93 1.70 1.53 1.52 1.48 1.43 1.42 1.36 1.26 1.15 1.05 1.05 1.07 1.10 1.15 1.20 1.26 1.22
0.47 0.52 0.58 0.72 0.77 0.82 0.85 0.88 0.96 1.00 1.02 1.16 1.18 1.08 1.13 1.22 1.30 1.44 1.57 1.69 1.60 1.54 1.41 1.36 1.36 1.27 1.20 1.12 1.08 1.10 1.10 1.06 1.04 1.07 1.08 1.25 1.32 1.33
0.45 0.54 0.57 0.66 0.63 0.65 0.74 0.78 0.84 1.03 1.16 1.12 1.10 1.04 1.03 1.10 1.15 1.32 1.46 1.59 1.56 1.41 1.27 1.17 1.17 1.16 1.11 1.05 0.96 0.91 0.97 1.01 0.97 0.98 1.04 1.08 1.12 1.21
0.47 0.55 0.59 0.63 0.61 0.61 0.69 0.78 0.86 1.03 1.21 1.08 0.96 0.95 0.98 1.08 1.18 1.22 1.28 1.34 1.48 1.48 1.33 1.22 1.19 1.21 1.16 1.03 0.98 0.92 0.84 0.87 0.91 0.97 1.01 1.03 1.05 1.07
0.52 0.59 0.70 0.78 0.76 0.76 0.83 0.87 0.90 0.91 0.99 0.95 0.95 1.02 1.09 1.10 1.16 1.23 1.24 1.22 1.21 1.24 1.27 1.23 1.21 1.26 1.27 1.18 1.08 0.95 0.90 0.84 0.86 0.99 1.11 1.14 1.09 1.08
0.66 0.67 0.78 0.93 0.97 0.97 0.99 1.01 1.03 0.99 1.00 0.98 1.01 1.06 1.08 1.07 1.09 1.19 1.29 1.31 1.22 1.09 1.04 1.05 1.11 1.23 1.31 1.29 1.13 0.99 0.96 0.95 0.95 0.97 1.00 1.04 1.02 1.02
0.66 0.71 0.91 0.98 0.96 0.97 1.02 1.05 0.99 0.88 0.91 0.94 0.92 0.93 0.95 0.95 0.98 1.03 1.11 1.17 1.17 1.10 1.02 1.01 1.06 1.17 1.22 1.11 0.99 0.88 0.91 0.96 1.04 1.04 0.97 0.91 0.88 0.87
0.71 0.89 1.08 1.13 1.07 1.01 0.98 0.94 0.86 0.79 0.78 0.79 0.83 0.86 0.90 0.93 0.94 0.94 0.95 0.98 1.01 1.03 1.07 1.07 1.09 1.15 1.21 1.14 1.00 0.86 0.84 0.91 0.98 1.03 1.00 0.99 1.00 1.04
0.76 0.90 1.03 1.13 1.09 0.97 0.89 0.86 0.82 0.79 0.76 0.77 0.81 0.87 0.89 0.92 0.91 0.90 0.90 0.96 0.98 0.97 0.98 0.95 0.96 1.17 1.24 1.29 1.22 0.96 0.87 0.96 1.06 1.06 1.05 1.09 1.09 1.03
0.74 0.78 0.81 0.82 0.78 0.77 0.82 0.81 0.80 0.83 0.82 0.81 0.83 0.86 0.91 0.98 0.98 0.93 0.92 0.92 0.93 0.91 0.88 0.88 0.96 1.14 1.24 1.30 1.20 1.02 0.89 0.91 1.07 1.19 1.16 1.13 1.10 1.04
0.76 0.74 0.74 0.75 0.75 0.73 0.77 0.79 0.80 0.81 0.83 0.85 0.89 0.92 0.93 0.96 1.01 1.00 0.95 0.95 0.95 0.93 0.94 0.95 0.98 1.10 1.21 1.24 1.20 1.10 1.00 0.96 0.98 1.00 1.00 1.06 1.04 0.96

GEFSNE_prec_meanprecacc_300.txt.gz
Total_Precipitation_Accumulation
2.02 2.18 2.11 2.04 2.01 2.02 2.07 2.17 2.22 2.09 1.80 1.33 1.17 1.13 1.16 1.26 1.60 1.49 1.35 1.33 1.19 1.13 1.07 1.06 1.12 1.24 1.41 1.66 1.87 2.05 2.15 2.23 2.30 2.45 2.58 2.54 2.61 2.66
1.82 1.94 2.07 2.06 2.05 2.03 2.08 2.11 2.09 2.08 1.94 1.52 1.24 1.12 1.20 1.15 1.37 1.14 1.25 1.43 1.20 1.04 0.99 0.97 1.00 1.08 1.19 1.36 1.40 1.37 1.36 1.39 1.55 1.86 2.05 2.00 1.98 2.08
1.60 1.63 1.79 1.91 2.02 2.03 2.03 2.03 2.07 2.04 1.90 1.65 1.30 1.15 1.29 1.31 1.36 1.16 1.13 1.17 1.11 1.07 0.99 0.93 0.91 0.97 0.98 1.10 1.22 1.13 1.04 1.02 1.07 1.30 1.53 1.60 1.56 1.54
1.46 1.53 1.56 1.57 1.68 1.80 1.92 1.89 1.95 1.99 1.96 1.84 1.55 1.32 1.32 1.42 1.59 1.54 1.39 1.28 1.26 1.35 1.29 1.13 1.02 1.02 1.04 1.06 1.16 1.12 0.93 0.89 0.87 0.95 1.16 1.40 1.51 1.49
1.23 1.30 1.33 1.41 1.55 1.56 1.63 1.70 1.77 1.82 1.94 1.89 1.80 1.67 1.51 1.45 1.54 1.52 1.55 1.66 1.58 1.55 1.58 1.41 1.24 1.14 1.10 1.12 1.16 1.16 1.04 0.94 0.90 0.91 0.97 1.12 1.29 1.41
1.09 1.16 1.22 1.27 1.37 1.43 1.45 1.59 1.71 1.79 1.82 1.79 1.74 1.66 1.61 1.56 1.57 1.57 1.64 1.77 1.84 1.69 1.62 1.52 1.48 1.38 1.25 1.20 1.16 1.17 1.18 1.08 1.02 1.04 1.02 1.05 1.19 1.29
1.03 1.05 1.08 1.08 1.12 1.18 1.18 1.37 1.52 1.69 1.76 1.79 1.69 1.58 1.52 1.53 1.52 1.55 1.63 1.84 1.89 1.90 1.84 1.68 1.54 1.37 1.30 1.25 1.19 1.20 1.22 1.16 1.11 1.13 1.15 1.12 1.19 1.28
0.93 0.96 1.04 1.08 1.04 0.99 0.96 1.03 1.16 1.28 1.47 1.60 1.64 1.56 1.48 1.45 1.57 1.69 1.68 1.81 1.93 1.84 1.73 1.79 1.68 1.57 1.40 1.26 1.29 1.31 1.25 1.19 1.13 1.13 1.18 1.19 1.18 1.26
0.76 0.89 1.00 1.04 1.08 1.07 0.97 0.97 0.96 0.98 1.09 1.27 1.40 1.42 1.41 1.44 1.55 1.66 1.74 1.80 1.70 1.74 1.69 1.81 1.73 1.58 1.40 1.37 1.44 1.32 1.28 1.24 1.22 1.23 1.23 1.20 1.19 1.24
0.67 0.79 0.94 1.05 1.11 1.12 1.07 1.12 1.06 0.94 0.92 0.98 1.16 1.26 1.30 1.47 1.66 1.84 1.95 1.95 1.83 1.76 1.71 1.77 1.67 1.49 1.35 1.33 1.44 1.32 1.23 1.19 1.18 1.23 1.26 1.21 1.21 1.26
0.68 0.74 0.90 0.98 1.13 1.17 1.10 1.18 1.17 0.96 0.89 0.97 1.01 1.10 1.25 1.41 1.63 1.85 1.93 1.94 1.91 1.79 1.60 1.49 1.42 1.44 1.42 1.34 1.31 1.31 1.21 1.13 1.07 1.06 1.08 1.09 1.13 1.27
0.73 0.75 0.97 1.03 1.12 1.08 1.03 1.22 1.31 1.14 0.88 0.87 0.95 1.09 1.20 1.36 1.61 1.78 2.02 2.03 1.84 1.76 1.57 1.42 1.40 1.50 1.64 1.48 1.28 1.18 1.11 1.16 1.16 1.13 1.11 1.13 1.22 1.20
0.59 0.64 0.66 0.82 0.89 0.93 1.00 1.06 1.21 1.11 0.96 1.05 1.15 1.16 1.25 1.32 1.45 1.60 1.84 2.02 1.96 1.73 1.55 1.54 1.51 1.49 1.48 1.42 1.30 1.18 1.07 1.07 1.09 1.12 1.17 1.22 1.29 1.25
0.47 0.53 0.59 0.73 0.78 0.83 0.86 0.90 0.99 1.02 1.04 1.18 1.20 1.09 1.14 1.23 1.31 1.45 1.58 1.71 1.62 1.56 1.45 1.40 1.39 1.31 1.25 1.17 1.13 1.14 1.13 1.08 1.06 1.09 1.10 1.28 1.34 1.36
0.47 0.56 0.59 0.68 0.64 0.66 0.76 0.80 0.87 1.06 1.18 1.14 1.11 1.05 1.03 1.10 1.16 1.33 1.48 1.60 1.57 1.42 1.29 1.19 1.20 1.19 1.16 1.10 1.01 0.96 1.01 1.04 0.99 1.00 1.06 1.10 1.13 1.23
0.50 0.57 0.61 0.64 0.62 0.63 0.70 0.79 0.89 1.06 1.23 1.10 0.97 0.97 0.99 1.09 1.19 1.22 1.29 1.35 1.49 1.49 1.35 1.24 1.21 1.23 1.19 1.06 1.02 0.96 0.88 0.91 0.94 0.99 1.03 1.05 1.06 1.09
0.54 0.61 0.71 0.79 0.76 0.77 0.83 0.87 0.91 0.93 1.01 0.96 0.97 1.03 1.10 1.11 1.17 1.24 1.26 1.23 1.23 1.25 1.28 1.25 1.23 1.28 1.30 1.22 1.11 0.98 0.93 0.87 0.89 1.01 1.13 1.16 1.11 1.11
0.69 0.68 0.79 0.94 0.98 0.98 1.00 1.02 1.04 1.00 1.01 1.00 1.04 1.08 1.09 1.08 1.10 1.20 1.31 1.33 1.23 1.10 1.06 1.07 1.13 1.25 1.34 1.34 1.20 1.05 0.99 0.98 0.98 1.00 1.03 1.07 1.06 1.06
0.69 0.72 0.92 0.99 0.98 0.98 1.03 1.07 1.00 0.89 0.92 0.96 0.94 0.95 0.96 0.97 0.99 1.04 1.13 1.19 1.19 1.12 1.04 1.03 1.09 1.20 1.26 1.16 1.04 0.94 0.96 0.99 1.07 1.06 1.00 0.93 0.90 0.91
0.73 0.91 1.10 1.16 1.10 1.04 1.01 0.98 0.89 0.83 0.81 0.82 0.86 0.89 0.93 0.96 0.96 0.96 0.97 1.01 1.04 1.05 1.09 1.09 1.12 1.18 1.24 1.19 1.05 0.92 0.91 0.98 1.02 1.07 1.03 1.01 1.02 1.06
0.78 0.91 1.05 1.16 1.12 1.00 0.93 0.90 0.86 0.83 0.80 0.81 0.85 0.90 0.92 0.95 0.93 0.92 0.92 0.99 1.01 0.99 1.00 0.97 0.99 1.20 1.27 1.34 1.28 1.03 0.94 1.05 1.16 1.12 1.10 1.13 1.12 1.06
0.75 0.78 0.82 0.83 0.80 0.79 0.84 0.84 0.83 0.86 0.86 0.85 0.87 0.89 0.94 1.01 1.01 0.96 0.94 0.95 0.96 0.94 0.91 0.90 0.99 1.17 1.27 1.34 1.24 1.06 0.95 0.98 1.16 1.28 1.24 1.20 1.16 1.09
0.77 0.74 0.75 0.76 0.76 0.75 0.78 0.81 0.82 0.84 0.87 0.89 0.93 0.96 0.97 0.99 1.03 1.03 0.98 0.97 0.98 0.97 0.98 0.99 1.01 1.14 1.25 1.28 1.25 1.14 1.04 1.01 1.03 1.06 1.07 1.14 1.11 1.02

GEFSNE_prec_meanprecacc_306.txt.gz
Total_Precipitation_Accumulation
2.03 2.19 2.12 2.05 2.02 2.03 2.10 2.20 2.24 2.11 1.82 1.34 1.18 1.15 1.18 1.28 1.62 1.51 1.37 1.34 1.19 1.13 1.07 1.06 1.13 1.24 1.42 1.67 1.87 2.05 2.16 2.25 2.31 2.47 2.60 2.57 2.65 2.70
1.83 1.95 2.08 2.07 2.06 2.04 2.10 2.14 2.12 2.10 1.96 1.53 1.26 1.13 1.22 1.16 1.38 1.16 1.27 1.45 1.21 1.04 0.99 0.98 1.00 1.09 1.20 1.37 1.41 1.37 1.37 1.40 1.56 1.88 2.06 2.02 2.00 2.12
1.61 1.64 1.80 1.92 2.03 2.04 2.05 2.05 2.09 2.05 1.92 1.67 1.32 1.17 1.31 1.33 1.38 1.18 1.15 1.19 1.12 1.07 1.00 0.93 0.91 0.98 0.99 1.11 1.24 1.14 1.05 1.02 1.08 1.31 1.54 1.62 1.58 1.56
1.46 1.53 1.57 1.59 1.69 1.81 1.93 1.90 1.96 2.00 1.97 1.86 1.56 1.33 1.34 1.43 1.61 1.56 1.41 1.29 1.27 1.37 1.30 1.13 1.03 1.03 1.05 1.07 1.18 1.13 0.94 0.89 0.87 0.95 1.17 1.42 1.52 1.51
1.24 1.31 1.34 1.43 1.56 1.58 1.65 1.72 1.79 1.84 1.95 1.90 1.81 1.68 1.52 1.46 1.56 1.55 1.57 1.67 1.59 1.57 1.60 1.42 1.25 1.16 1.12 1.13 1.17 1.17 1.04 0.94 0.91 0.92 0.98 1.14 1.31 1.43
1.10 1.17 1.22 1.28 1.38 1.44 1.46 1.60 1.72 1.80 1.84 1.81 1.75 1.68 1.62 1.58 1.59 1.60 1.67 1.80 1.86 1.71 1.64 1.54 1.49 1.39 1.27 1.21 1.17 1.18 1.19 1.09 1.04 1.06 1.03 1.06 1.21 1.30
1.04 1.06 1.09 1.09 1.13 1.19 1.18 1.37 1.53 1.70 1.78 1.81 1.71 1.60 1.54 1.55 1.55 1.57 1.65 1.87 1.92 1.92 1.87 1.69 1.55 1.38 1.31 1.27 1.21 1.22 1.24 1.18 1.12 1.15 1.17 1.14 1.20 1.30
0.94 0.97 1.05 1.08 1.04 0.99 0.97 1.04 1.17 1.30 1.49 1.63 1.66 1.58 1.50 1.47 1.59 1.71 1.71 1.85 1.96 1.87 1.76 1.81 1.70 1.59 1.42 1.28 1.33 1.34 1.29 1.22 1.16 1.15 1.20 1.22 1.22 1.30
0.76 0.90 1.01 1.05 1.09 1.08 0.98 0.97 0.96 0.99 1.10 1.29 1.42 1.44 1.43 1.46 1.57 1.69 1.76 1.83 1.73 1.78 1.74 1.84 1.77 1.61 1.42 1.39 1.47 1.36 1.31 1.28 1.28 1.26 1.25 1.22 1.23 1.30
0.68 0.80 0.95 1.06 1.11 1.13 1.08 1.13 1.07 0.94 0.92 0.99 1.17 1.28 1.31 1.49 1.68 1.85 1.97 1.97 1.85 1.79 1.75 1.80 1.69 1.52 1.37 1.34 1.47 1.35 1.26 1.21 1.21 1.26 1.28 1.23 1.24 1.31
0.69 0.74 0.91 0.99 1.15 1.20 1.13 1.20 1.18 0.96 0.89 0.97 1.03 1.12 1.26 1.43 1.65 1.88 1.96 1.97 1.95 1.82 1.62 1.50 1.43 1.45 1.44 1.36 1.34 1.34 1.23 1.15 1.08 1.08 1.10 1.10 1.15 1.31
0.73 0.75 0.98 1.04 1.14 1.11 1.05 1.24 1.33 1.15 0.89 0.88 0.97 1.11 1.22 1.38 1.64 1.81 2.05 2.06 1.88 1.79 1.59 1.43 1.41 1.52 1.66 1.51 1.30 1.21 1.14 1.19 1.18 1.14 1.12 1.14 1.23 1.23
0.59 0.64 0.66 0.83 0.90 0.95 1.01 1.08 1.23 1.13 0.98 1.08 1.18 1.20 1.29 1.36 1.49 1.62 1.86 2.04 1.98 1.76 1.58 1.57 1.53 1.50 1.50 1.44 1.33 1.20 1.09 1.09 1.11 1.14 1.19 1.24 1.30 1.27
0.48 0.53 0.60 0.74 0.79 0.84 0.87 0.92 1.01 1.04 1.06 1.21 1.24 1.15 1.19 1.27 1.34 1.47 1.59 1.72 1.63 1.58 1.47 1.43 1.41 1.33 1.28 1.19 1.16 1.16 1.16 1.10 1.08 1.11 1.12 1.30 1.36 1.37
0.47 0.56 0.60 0.69 0.65 0.67 0.77 0.81 0.88 1.07 1.21 1.17 1.15 1.08 1.06 1.12 1.18 1.34 1.49 1.61 1.58 1.43 1.31 1.23 1.23 1.21 1.19 1.13 1.04 0.99 1.04 1.07 1.01 1.02 1.08 1.13 1.16 1.26
0.50 0.58 0.62 0.65 0.63 0.63 0.71 0.80 0.90 1.07 1.25 1.11 0.99 0.99 1.00 1.10 1.20 1.24 1.31 1.36 1.50 1.50 1.36 1.26 1.24 1.27 1.23 1.09 1.05 0.99 0.91 0.94 0.97 1.02 1.06 1.08 1.09 1.12
0.55 0.62 0.72 0.80 0.77 0.78 0.84 0.88 0.92 0.94 1.02 0.98 0.98 1.05 1.11 1.12 1.18 1.26 1.27 1.24 1.24 1.26 1.29 1.27 1.26 1.32 1.34 1.25 1.14 1.01 0.96 0.90 0.92 1.05 1.17 1.20 1.15 1.14
0.70 0.70 0.80 0.95 0.98 0.99 1.02 1.03 1.05 1.01 1.03 1.02 1.06 1.10 1.11 1.09 1.11 1.21 1.32 1.35 1.25 1.12 1.07 1.09 1.16 1.28 1.36 1.36 1.22 1.07 1.02 1.01 1.01 1.03 1.06 1.11 1.09 1.10
0.70 0.74 0.93 1.00 0.98 0.99 1.05 1.08 1.01 0.91 0.94 0.98 0.96 0.97 0.99 0.99 1.01 1.06 1.15 1.20 1.21 1.13 1.06 1.05 1.11 1.22 1.27 1.18 1.05 0.95 0.98 1.01 1.09 1.09 1.03 0.98 0.95 0.95
0.74 0.92 1.11 1.17 1.12 1.06 1.03 0.99 0.91 0.84 0.83 0.85 0.90 0.92 0.97 1.00 1.00 0.99 1.00 1.03 1.07 1.07 1.11 1.10 1.13 1.19 1.26 1.20 1.07 0.93 0.92 1.00 1.05 1.09 1.07 1.06 1.08 1.12
0.80 0.93 1.07 1.17 1.13 1.01 0.94 0.91 0.87 0.84 0.82 0.83 0.88 0.94 0.96 0.98 0.96 0.95 0.95 1.01 1.04 1.02 1.02 0.99 1.00 1.22 1.29 1.36 1.30 1.05 0.95 1.07 1.19 1.17 1.14 1.18 1.18 1.11
0.77 0.80 0.83 0.84 0.81 0.80 0.85 0.85 0.85 0.88 0.87 0.86 0.90 0.92 0.97 1.04 1.03 0.98 0.97 0.98 0.99 0.97 0.94 0.93 1.01 1.20 1.30 1.37 1.26 1.08 0.96 1.00 1.19 1.33 1.30 1.26 1.21 1.15
0.79 0.76 0.77 0.78 0.77 0.76 0.80 0.82 0.84 0.85 0.87 0.90 0.95 0.98 0.99 1.01 1.06 1.06 1.02 1.01 1.02 1.01 1.03 1.04 1.05 1.18 1.29 1.31 1.27 1.16 1.07 1.03 1.06 1.09 1.12 1.21 1.17 1.08